Stations météo

Publicité
Strasbourg, France (7190): Température de l'air & dewpoint: 15.10.2019 04:00:00 - 21.10.2019 04:00:00 (CEST)Strasbourg, France (7190): Température de l'air 5cm: 15.10.2019 04:00:00 - 21.10.2019 04:00:00 (CEST)Strasbourg, France (7190): Température de l'air -20cm & Température de l'air -100cm: 15.10.2019 04:00:00 - 21.10.2019 04:00:00 (CEST)Strasbourg, France (7190): Vitesse du vent & gusts: 15.10.2019 04:00:00 - 21.10.2019 04:00:00 (CEST)Strasbourg, France (7190): Direction du vent: 15.10.2019 04:00:00 - 21.10.2019 04:00:00 (CEST)Strasbourg, France (7190): reduced air pressure: 15.10.2019 04:00:00 - 21.10.2019 04:00:00 (CEST)Strasbourg, France (7190): visibility: 15.10.2019 04:00:00 - 21.10.2019 04:00:00 (CEST)Strasbourg, France (7190): Ensoleillement: 15.10.2019 04:00:00 - 21.10.2019 04:00:00 (CEST)Strasbourg, France (7190): Quantités de précipitations: 15.10.2019 04:00:00 - 21.10.2019 04:00:00 (CEST)
Date & Time tt [°C] td [°C] tt 5cm [°C] tt -20cm [°C] tt -100cm [°C] ff [km/h] ff [knt] fx [km/h] fx [knt] dd ppp [hPa] vv [km] sd [min] rr [mm]
21.10.2019 04:00:00 14,3 13,8 13,7 15,4 16,1 6 4 15 8 S 1013,8 12 0 0,0
21.10.2019 03:00:00 14,5 13,9 13,5 15,4 16,1 8 4 19 10 S 1013,2 8 0 0,4
21.10.2019 02:00:00 14,1 13,8 12,6 15,5 16,1 8 4 20 11 WSW 1012,1 7 0 0,0
21.10.2019 01:00:00 15,1 14,1 14,0 15,5 16,0 10 5 24 13 ESE 1011,0 25 0 0,0
21.10.2019 00:00:00 15,4 14,3 14,5 15,6 16,1 10 5 47 25 NE 1011,9 17 0 0,4
20.10.2019 23:00:00 15,7 14,6 13,9 15,6 16,1 35 19 48 26 W 1012,6 4,3 0 0,0
20.10.2019 22:00:00 14,2 13,7 13,3 15,7 16,1 3 1 13 7 W 1008,8 7 0 0,0
20.10.2019 21:00:00 14,5 14,0 13,7 15,7 16,1 8 4 13 7 ENE 1008,0 8 0 0,0
20.10.2019 20:00:00 14,8 14,0 14,0 15,7 16,1 7 4 16 9 NW 1008,4 11 0 0,0
20.10.2019 19:00:00 15,2 14,1 14,4 15,6 16,1 9 5 17 9 N 1008,2 16 0 0,0
20.10.2019 18:00:00 16,2 14,4 15,8 15,4 16,1 0 0 19 10 N 1008,0 9 0 0,0
20.10.2019 17:00:00 17,3 14,6 17,4 15,2 16,1 7 4 14 8 WNW 1007,4 27 23 0,0
20.10.2019 16:00:00 18,4 14,3 18,8 15,0 16,1 4 2 13 7 SW 1007,1 16 18 0,0
20.10.2019 15:00:00 17,3 14,2 19,0 14,7 16,1 6 3 13 7 NNE 1007,0 32 2 0,0
20.10.2019 14:00:00 16,6 13,7 17,7 14,6 16,1 4 2 11 6 E 1007,4 28 9 0,0
20.10.2019 13:00:00 15,4 13,2 15,7 14,4 16,1 4 2 12 7 SSW 1007,6 16 0 0,0
20.10.2019 12:00:00 15,0 13,5 16,4 14,3 16,1 7 4 11 6 W 1007,9 14 7 0,0
20.10.2019 11:00:00 14,5 13,4 14,7 14,3 16,1 3 2 9 5 W 1007,9 12 4 0,0
20.10.2019 10:00:00 13,5 13,2 13,3 14,3 16,1 6 4 9 5 SW 1008,4 10 8 0,0
20.10.2019 09:00:00 13,0 13,0 12,6 14,3 16,1 2 1 7 4 SSE 1008,7 4,4 0 0,0
20.10.2019 08:00:00 12,7 12,7 12,0 14,3 16,1 2 1 5 3 ENE 1008,4 3,7 0 0,0
20.10.2019 07:00:00 12,5 12,3 11,8 14,4 16,1 2 1 12 6 E 1008,3 4,0 0 0,0
20.10.2019 06:00:00 12,5 12,3 11,9 14,4 16,1 5 3 9 5 E 1008,3 10 0 0,2
20.10.2019 05:00:00 12,6 12,6 11,7 14,5 16,1 6 4 11 6 NE 1008,2 11 0 0,0
20.10.2019 04:00:00 12,2 11,9 11,6 14,5 16,1 4 2 12 6 SSE 1007,8 16 0 0,0
20.10.2019 03:00:00 12,8 12,6 12,4 14,5 16,1 3 2 12 6 W 1008,2 14 0 0,2
20.10.2019 02:00:00 13,0 12,8 12,6 14,6 16,1 4 2 20 11 SSE 1008,5 12 0 4,5
20.10.2019 01:00:00 13,0 12,7 12,7 14,6 16,1 7 4 13 7 S 1008,8 6 0 0,8
20.10.2019 00:00:00 13,2 12,9 12,8 14,7 16,1 8 5 21 11 S 1009,3 7 0 0,6
19.10.2019 23:00:00 13,2 12,9 12,8 14,7 16,1 8 4 22 12 S 1009,8 18 0 0,2
19.10.2019 22:00:00 13,3 13,0 12,8 14,8 16,2 9 5 23 12 S 1009,3 8 0 1,6
19.10.2019 21:00:00 13,3 12,8 12,8 14,8 16,2 14 8 27 15 S 1009,5 6 0 2,1
19.10.2019 20:00:00 13,5 12,9 13,0 14,8 16,2 8 5 24 13 ESE 1008,1 10 0 1,6
19.10.2019 19:00:00 13,9 13,1 13,3 14,8 16,1 11 6 27 15 S 1009,0 12 0 1,8
19.10.2019 18:00:00 14,3 13,7 13,7 14,8 16,2 11 6 29 16 S 1008,1 11 0 0,6
19.10.2019 17:00:00 14,7 13,7 14,0 14,7 16,1 15 8 30 16 S 1008,1 23 0 0,4
19.10.2019 16:00:00 15,1 13,5 15,1 14,6 16,1 14 8 28 15 S 1008,4 53 0 0,0
19.10.2019 15:00:00 15,2 13,4 15,7 14,6 16,2 12 7 26 14 S 1008,4 43 0 0,0
19.10.2019 14:00:00 14,9 13,3 14,2 14,5 16,2 15 8 26 14 S 1008,9 37 0 0,0
19.10.2019 13:00:00 14,3 13,0 14,3 14,5 16,2 17 9 28 15 S 1009,6 20 0 0,0
19.10.2019 12:00:00 14,2 12,8 13,9 14,5 16,2 16 9 31 17 S 1010,2 46 0 0,0
19.10.2019 11:00:00 13,7 12,4 13,3 14,5 16,2 14 7 25 14 S 1010,4 58 0 0,0
19.10.2019 10:00:00 13,3 12,4 12,7 14,6 16,2 18 10 30 16 S 1010,2 41 0 0,0
19.10.2019 09:00:00 12,8 12,0 11,8 14,7 16,2 16 9 28 15 S 1009,6 47 0 0,0
19.10.2019 08:00:00 12,3 11,8 11,6 14,7 16,2 9 5 22 12 SSE 1009,4 36 0 0,0
19.10.2019 07:00:00 12,0 11,5 11,5 14,8 16,2 7 4 19 10 SSE 1009,8 26 0 0,0
19.10.2019 06:00:00 12,3 11,8 11,8 14,8 16,1 12 6 23 12 S 1010,8 13 0 0,6
19.10.2019 05:00:00 12,6 12,0 12,0 15,0 16,2 11 6 24 13 S 1010,8 25 0 0,2
19.10.2019 04:00:00 12,9 11,8 12,3 15,0 16,2 10 5 22 12 S 1011,5 36 0 0,0
19.10.2019 03:00:00 13,1 11,8 12,5 15,1 16,2 17 9 27 15 SSW 1012,0 59 0 0,0
19.10.2019 02:00:00 13,3 12,0 12,7 15,2 16,2 13 7 24 13 S 1011,7 36 0 0,0
19.10.2019 01:00:00 13,4 12,1 12,9 15,3 16,2 13 7 29 15 S 1011,8 47 0 0,0
19.10.2019 00:00:00 13,7 12,3 13,1 15,3 16,2 13 7 23 12 S 1012,3 42 0 0,0
18.10.2019 23:00:00 13,9 12,6 13,3 15,4 16,2 15 8 23 12 S 1012,7 38 0 0,0
18.10.2019 22:00:00 14,2 12,8 13,5 15,5 16,2 14 8 24 13 S 1012,6 36 0 0,0
18.10.2019 21:00:00 14,6 12,8 12,8 15,5 16,2 11 6 19 11 S 1012,3 41 0 0,0
18.10.2019 20:00:00 14,6 11,2 13,3 15,5 16,2 5 3 16 9 S 1012,6 60 0 0,0
18.10.2019 19:00:00 14,5 11,5 13,3 15,5 16,2 7 4 19 10 S 1012,5 60 0 0,0
18.10.2019 18:00:00 14,9 10,9 14,5 15,4 16,2 14 8 25 14 SW 1012,2 60 6 0,0
18.10.2019 17:00:00 16,8 12,1 16,6 15,3 16,2 10 5 36 20 S 1012,2 48 35 0,0
18.10.2019 16:00:00 16,6 11,3 16,5 15,2 16,2 23 13 46 25 W 1012,1 46 5 0,0
18.10.2019 15:00:00 18,3 12,9 16,6 15,0 16,2 18 10 35 19 S 1011,5 50 22 0,0
18.10.2019 14:00:00 16,8 12,5 16,6 14,9 16,2 16 8 26 14 SW 1011,7 50 4 0,0
18.10.2019 13:00:00 15,7 13,9 13,5 14,8 16,2 4 2 44 24 SW 1012,1 56 0 4,5
18.10.2019 12:00:00 16,2 13,9 14,9 14,8 16,2 24 13 39 21 SW 1011,9 13 18 0,2
18.10.2019 11:00:00 15,6 13,4 16,3 14,7 16,2 15 8 28 15 SSW 1011,6 34 12 0,0
18.10.2019 10:00:00 15,0 13,7 13,3 14,8 16,2 9 5 14 8 S 1011,8 27 12 0,0
18.10.2019 09:00:00 13,0 12,4 11,9 14,9 16,2 5 3 11 6 SSE 1012,1 15 0 0,0
18.10.2019 08:00:00 12,7 12,1 10,6 15,0 16,2 4 2 14 8 SSE 1012,5 11 0 0,0
18.10.2019 07:00:00 12,7 12,4 10,4 15,1 16,2 3 2 16 8 ENE 1012,6 11 0 0,0
18.10.2019 06:00:00 12,3 11,7 11,3 15,2 16,2 11 6 21 11 SSW 1013,2 13 0 0,0
18.10.2019 05:00:00 13,9 12,9 13,2 15,2 16,2 17 9 30 16 S 1012,8 20 0 0,0
18.10.2019 04:00:00 14,4 13,4 13,7 15,3 16,2 19 10 31 17 S 1013,1 22 0 0,0
18.10.2019 03:00:00 14,4 13,6 14,0 15,3 16,2 13 7 26 14 S 1013,6 19 0 0,0
18.10.2019 02:00:00 14,4 13,6 13,3 15,4 16,2 15 8 29 15 S 1013,8 20 0 0,0
18.10.2019 01:00:00 14,2 13,4 13,5 15,5 16,3 15 8 26 14 S 1013,9 18 0 0,0
18.10.2019 00:00:00 14,7 13,7 13,9 15,5 16,2 16 9 29 16 S 1014,2 20 0 0,0
17.10.2019 23:00:00 14,6 13,8 13,9 15,5 16,2 16 9 27 15 S 1014,4 17 0 0,0
17.10.2019 22:00:00 14,6 14,0 14,0 15,5 16,2 14 8 24 13 S 1014,6 17 0 0,2
17.10.2019 21:00:00 14,6 14,0 14,0 15,5 16,2 9 5 20 11 SSW 1014,8 18 0 0,2
17.10.2019 20:00:00 14,7 13,9 14,1 15,5 16,2 10 6 18 10 SSE 1014,5 25 0 0,2
17.10.2019 19:00:00 14,8 14,0 14,2 15,5 16,2 10 5 18 10 S 1014,4 14 0 0,6
17.10.2019 18:00:00 15,3 14,0 14,5 15,4 16,2 10 5 16 9 S 1014,1 11 0 1,4
17.10.2019 17:00:00 16,4 13,9 14,7 15,2 16,2 6 3 14 8 SSW 1013,8 12 0 0,6
17.10.2019 16:00:00 18,3 12,3 17,4 15,1 16,3 6 4 18 10 S 1013,3 59 0 0,0
17.10.2019 15:00:00 18,9 11,5 19,3 14,8 16,3 11 6 25 13 S 1013,6 59 0 0,0
17.10.2019 14:00:00 19,1 11,1 21,0 14,5 16,3 15 8 26 14 S 1013,8 30 42 0,0
17.10.2019 13:00:00 18,8 11,6 19,1 14,3 16,3 15 8 24 13 S 1014,4 50 43 0,0
17.10.2019 12:00:00 16,6 11,5 17,4 14,2 16,3 11 6 21 12 SSW 1015,0 51 0 0,0
17.10.2019 11:00:00 15,1 11,5 15,1 14,2 16,2 7 4 19 11 S 1015,4 54 8 0,0
17.10.2019 10:00:00 13,6 11,1 12,2 14,2 16,3 11 6 21 12 S 1015,6 41 0 0,0
17.10.2019 09:00:00 12,2 10,4 - - - 9 5 22 12 SSE 1015,6 55 - 0,0
17.10.2019 08:00:00 11,8 10,0 10,6 14,4 16,3 12 6 26 14 S 1015,0 52 0 0,0
17.10.2019 07:00:00 11,4 10,1 10,6 14,5 16,3 5 3 21 12 SE 1014,9 13 0 1,6
17.10.2019 06:00:00 12,3 9,3 10,6 14,5 16,3 16 8 26 14 S 1014,9 16 0 0,6
17.10.2019 05:00:00 12,1 9,3 10,7 14,6 16,3 13 7 23 12 S 1014,7 19 0 0,2
17.10.2019 04:00:00 12,9 9,0 11,6 14,7 16,3 16 9 27 15 SSE 1014,4 58 0 0,0
17.10.2019 03:00:00 12,8 8,9 11,5 14,8 16,3 13 7 21 11 S 1014,5 59 0 0,0
17.10.2019 02:00:00 12,4 8,7 11,1 14,9 16,3 7 4 18 10 SSE 1014,3 60 0 0,0
17.10.2019 01:00:00 12,9 8,8 10,9 15,1 16,3 10 5 18 10 S 1014,2 60 0 0,0
17.10.2019 00:00:00 12,7 8,8 10,1 15,2 16,3 7 4 19 11 S 1014,4 59 0 0,0
16.10.2019 23:00:00 11,4 8,3 10,1 15,4 16,3 11 6 20 11 S 1014,1 59 0 0,0
16.10.2019 22:00:00 12,5 8,4 9,2 15,5 16,3 9 5 20 11 S 1014,0 60 0 0,0
16.10.2019 21:00:00 11,8 7,9 9,1 15,6 16,3 7 4 14 8 SE 1014,0 58 0 0,0
16.10.2019 20:00:00 13,7 8,1 10,9 15,6 16,3 9 5 16 8 S 1013,8 60 0 0,0
16.10.2019 19:00:00 15,3 8,1 12,5 15,5 16,3 8 4 17 9 S 1013,4 48 15 0,0
16.10.2019 18:00:00 18,0 8,5 16,5 15,3 16,3 10 5 25 14 S 1013,1 44 60 0,0
16.10.2019 17:00:00 19,3 8,3 22,4 15,1 16,3 15 8 28 15 S 1013,3 44 60 0,0
16.10.2019 16:00:00 19,6 9,2 21,2 14,8 16,3 16 9 32 17 S 1013,6 47 57 0,0
16.10.2019 15:00:00 19,1 9,3 19,5 14,5 16,3 19 10 33 18 S 1014,0 53 51 0,0
16.10.2019 14:00:00 18,0 9,3 20,5 14,3 16,3 19 11 37 20 S 1014,5 24 52 0,0
16.10.2019 13:00:00 17,4 9,8 18,4 14,2 16,3 19 11 35 19 S 1015,2 27 56 0,0
16.10.2019 12:00:00 16,1 10,4 15,5 14,2 16,3 19 10 32 17 S 1015,7 30 43 0,0
16.10.2019 11:00:00 13,2 9,4 12,1 14,2 16,3 18 10 29 15 S 1016,3 33 9 0,0
16.10.2019 10:00:00 11,3 8,9 10,5 14,3 16,3 15 8 30 16 S 1016,8 50 13 0,0
16.10.2019 09:00:00 10,4 8,8 9,8 14,4 16,3 15 8 31 17 S 1016,5 50 0 0,0
16.10.2019 08:00:00 9,9 8,7 8,8 14,6 16,3 14 8 33 18 S 1016,1 52 0 0,0
16.10.2019 07:00:00 10,1 8,7 9,3 14,7 16,3 16 9 31 17 S 1016,2 50 0 0,0
16.10.2019 06:00:00 10,9 9,7 10,3 14,8 16,3 13 7 25 13 S 1015,9 52 0 0,0
16.10.2019 05:00:00 11,3 10,2 10,4 14,9 16,3 14 8 23 12 S 1015,7 48 0 0,0
16.10.2019 04:00:00 11,3 10,2 10,6 15,1 16,3 13 7 23 13 S 1015,7 19 0 0,0
16.10.2019 03:00:00 11,4 10,1 10,4 15,2 16,3 15 8 26 14 S 1015,6 50 0 0,0
16.10.2019 02:00:00 11,2 9,8 10,5 15,3 16,3 13 7 22 12 S 1015,3 57 0 0,0
16.10.2019 01:00:00 11,6 9,7 10,9 15,4 16,3 13 7 26 14 S 1014,9 54 0 0,0
16.10.2019 00:00:00 11,9 10,1 11,4 15,5 16,3 14 8 26 14 SSW 1014,9 30 0 0,0
15.10.2019 23:00:00 12,6 9,6 11,2 15,7 16,3 13 7 34 19 SW 1014,0 19 0 0,6
15.10.2019 22:00:00 12,4 11,5 11,6 15,7 16,3 14 8 34 19 WSW 1012,8 7 0 1,6
15.10.2019 21:00:00 13,2 12,7 12,7 15,8 16,2 15 8 27 14 SSW 1011,5 7 0 1,4
15.10.2019 20:00:00 13,4 12,9 13,0 15,8 16,2 14 8 26 14 S 1011,1 9 0 1,2
15.10.2019 19:00:00 13,7 13,1 13,3 15,8 16,2 14 8 24 13 SSW 1010,1 12 0 0,8
15.10.2019 18:00:00 14,1 13,5 13,6 15,8 16,2 11 6 20 11 SSW 1008,9 19 0 0,2
15.10.2019 17:00:00 14,9 12,9 13,8 15,8 16,2 11 6 19 10 SW 1008,7 27 0 0,2
15.10.2019 16:00:00 15,3 13,3 13,9 15,7 16,2 8 4 27 15 S 1008,9 8 0 0,8
15.10.2019 15:00:00 17,4 11,4 16,8 15,6 16,2 14 7 25 13 SSW 1008,3 10 0 0,0
15.10.2019 14:00:00 17,8 11,4 17,5 15,5 16,2 6 3 21 12 SE 1008,1 28 0 0,0
15.10.2019 13:00:00 17,0 13,9 17,3 15,4 16,2 4 2 15 8 S 1008,5 20 0 0,0
15.10.2019 12:00:00 16,5 13,8 16,9 15,3 16,2 6 3 13 7 SSE 1008,5 15 1 0,0
15.10.2019 11:00:00 15,5 14,0 15,0 15,3 16,2 8 5 15 8 SSE 1008,0 11 3 0,0
15.10.2019 10:00:00 14,6 13,5 15,0 15,4 16,2 9 5 14 7 SW 1007,8 7 8 0,0
15.10.2019 09:00:00 13,9 12,9 11,1 15,5 16,2 4 2 11 6 NE 1006,8 8 48 0,0
15.10.2019 08:00:00 11,5 11,3 9,6 15,7 16,2 4 2 15 8 ESE 1006,7 6 0 0,0
15.10.2019 07:00:00 10,7 10,2 9,7 15,9 16,2 3 2 11 6 N 1006,8 7 0 0,0
15.10.2019 06:00:00 11,1 10,6 8,6 16,1 16,2 8 4 12 6 WSW 1007,8 9 0 0,0
15.10.2019 05:00:00 10,7 9,8 8,7 16,2 16,2 3 1 5 3 NNE 1008,1 1,4 0 0,0
15.10.2019 04:00:00 10,9 9,7 9,4 16,4 16,2 2 1 10 5 S 1008,7 8 0 0,0

tt = Température de l'air
td = dewpoint
tt 5cm = Température de l'air 5cm
tt -20cm = Température de l'air -20cm
tt -100cm = Température de l'air -100cm
ff = Vitesse du vent
fx = gusts
dd = Direction du vent
ppp = reduced air pressure
vv = visibility
sd = Ensoleillement
rr = Quantités de précipitations

stations d'obs. à proximité